Weather History for MZBZ - December, 2013

Change the Weather History Date:

Wednesday, December 25, 2013

  Actual Average Record
Temperature  
Mean Temperature 76 °F -  
Max Temperature 82 °F - 87 °F (1997)
Min Temperature 71 °F 67 °F 64 °F (2003)
Cooling Degree Days 12    
Growing Degree Days 26 (Base 50)    
Moisture  
Dew Point 71 °F    
Average Humidity 81    
Maximum Humidity 95    
Minimum Humidity 58    
Precipitation  
Precipitation 0.02 in 0.19 in - ()
Sea Level Pressure  
Sea Level Pressure 30.03 in    
Wind  
Wind Speed 5 mph ()    
Max Wind Speed 12 mph    
Max Gust Speed -    
Visibility 8.3 miles    
Events Rain    
Averages and records for this station are not official NWS values.
T = Trace of Precipitation, MM = Missing Value Source: Averaged Metar Reports

Daily Weather History Graph

Daily Weather History Graph

Search for Another Location

Airport or City:

Trip Planner

Search our weather history database for the weather conditions in past years. The results will help you decide how hot, cold, wet, or windy it might be!

Date:

Astronomy

Dec. 25, 2013 Rise Set
Actual Time 6:20 AM CST 5:26 PM CST
Civil Twilight 5:57 AM CST 5:49 PM CST
Nautical Twilight 5:30 AM CST 6:16 PM CST
Astronomical Twilight 5:03 AM CST 6:43 PM CST
Moon No Moon Rise 11:47 AM CST (12/25)
Length of Visible Light 11h 52m
Length of Day
11h 05m
Waning Gibbous, 48% of the Moon is Illuminated
Dec 25
Waning Gibbous
Jan 1
New
Jan 7
First Quarter
Jan 15
Full
Jan 23
Last Quarter

Hourly Weather History & Observations

Time (CST) Temp. Heat Index Dew Point Humidity Pressure Visibility Wind Dir Wind Speed Gust Speed Precip Events Conditions
12:00 AM 73 °F - 72 °F 95% 30.06 in 12 mi Calm Calm - - Rain Light Rain Showers
3:00 AM 73 °F - 72 °F 94% 30.02 in 12 mi NNW 11.5 mph - -   Mostly Cloudy
5:00 AM 73.4 °F - 71.6 °F 94% 30.01 in 6.2 mi NNW 5.8 mph - N/A   Mostly Cloudy
6:00 AM 72 °F - 70 °F 91% 30.04 in 12 mi NW 5.8 mph - -   Mostly Cloudy
6:00 AM 71.6 °F - 69.8 °F 94% 30.04 in 6.2 mi NW 5.8 mph - N/A   Mostly Cloudy
7:00 AM 71.6 °F - 69.8 °F 94% 30.06 in 6.2 mi NNW 6.9 mph - N/A   Mostly Cloudy
8:00 AM 73.4 °F - 69.8 °F 88% 30.06 in 6.2 mi NNW 9.2 mph - N/A   Mostly Cloudy
9:00 AM 75 °F - 71 °F 84% 30.10 in 14 mi NW 8.1 mph - -   Mostly Cloudy
9:00 AM 75.2 °F - 71.6 °F 89% 30.09 in 6.2 mi NW 8.1 mph - N/A   Mostly Cloudy
10:00 AM 77.0 °F - 69.8 °F 78% 30.08 in 6.2 mi NW 9.2 mph - N/A   Scattered Clouds
11:00 AM 78.8 °F - 71.6 °F 78% 30.06 in 6.2 mi NW 8.1 mph - N/A   Mostly Cloudy
12:00 PM 80 °F - 72 °F 69% 30.04 in 14 mi WNW 6.9 mph - -   Partly Cloudy
12:00 PM 78.8 °F - 71.6 °F 78% 30.03 in 6.2 mi WNW 6.9 mph - N/A   Scattered Clouds
1:00 PM 80.6 °F 83.9 °F 69.8 °F 70% 30.00 in 6.2 mi North 5.8 mph - N/A   Scattered Clouds
2:00 PM 82.4 °F 86.3 °F 69.8 °F 66% 29.97 in 6.2 mi NNE 8.1 mph - N/A   Scattered Clouds
3:00 PM 82.4 °F 84.6 °F 66.2 °F 58% 29.98 in 6.2 mi NE 6.9 mph - N/A   Partly Cloudy
4:00 PM 82.4 °F 85.4 °F 68.0 °F 62% 29.95 in 6.2 mi NE 6.9 mph - N/A   Partly Cloudy
5:00 PM 80.6 °F 83.9 °F 69.8 °F 70% 29.98 in 6.2 mi NE 4.6 mph - N/A   Partly Cloudy
6:00 PM 78 °F - 72 °F 75% 30.00 in 12 mi NE 3.5 mph - -   Scattered Clouds
6:00 PM 78.8 °F - 71.6 °F 78% 29.98 in 6.2 mi NE 3.5 mph - N/A   Partly Cloudy
9:00 PM 74 °F - 72 °F 92% 30.04 in 12 mi Calm Calm - -   Scattered Clouds